Regional Weather Roundup
Issued by NWS

Home | Current Version | Previous Version | Text Only | Print | Product List | Glossary On
Versions: 1 2 3 4 5 6 7 8 9 10 11 12 13 14 15 16 17 18 19 20 21 22 23 24 25 26 27 28 29 30 31 32 33 34 35 36 37 38 39 40 41 42 43 44 45 46 47 48 49 50
000
ASUS43 KDTX 222001
RWRMI
MICHIGAN HOURLY REGIONAL WEATHER ROUNDUP
NATIONAL WEATHER SERVICE DETROIT/PONTIAC MI
400 PM EDT SAT APR 22 2017

NOTE: "FAIR" INDICATES FEW OR NO CLOUDS BELOW 12,000 FEET WITH NO
SIGNIFICANT WEATHER AND/OR OBSTRUCTION TO VISIBILITY.

MIZ047>049-052>055-059>063-066>070-074>076-081>083-222100-
SOUTHEAST LOWER MICHIGAN

CITY           SKY/WX    TMP DP  RH WIND       PRES   REMARKS
ADRIAN         CLOUDY    59  36  42 NE12      30.13F
ALMA           SUNNY     60  33  35 SE7       30.14F
ANN ARBOR      CLOUDY    60  32  34 N13G18    30.12F
BAD AXE        SUNNY     54  26  34 N9        30.16F
CARO           SUNNY     57  31  37 NE10      30.15F
DETROIT CITY   PTSUNNY   59  31  34 N13       30.13F
DETROIT        PTSUNNY   60  33  36 NE10G21   30.13F
FLINT          SUNNY     59  35  40 VRB5G16   30.14F
GROSSE ILE     PTSUNNY   56  35  45 E9        30.13S
HILLSDALE      SUNNY     57  32  38 N7        30.12F
HOWELL         SUNNY     58  29  32 N7        30.13F

CITY           SKY/WX    TMP DP  RH WIND       PRES   REMARKS
JACKSON        SUNNY     59  34  39 VRB3      30.13F
LAMBERTVILLE   CLOUDY    55  35  45 SE8       30.13S
LANSING        SUNNY     60  30  32 NE10      30.15F
LAPEER         FAIR      58  30  35 N10       30.14F
MASON          SUNNY     58  36  43 NE12      30.14F
MONROE         CLOUDY    58  31  34 NE7       30.12F
MT. CLEMENS    PTSUNNY   57  33  40 N10       30.12F
PONTIAC        MOSUNNY   58  29  33 NE9G18    30.12F
PORT HOPE        N/A     46  32  58 N5        30.16F
PORT HURON     CLOUDY    52  30  43 NE12      30.16S
TRI CITIES     SUNNY     59  33  37 E7        30.15F
MIDLAND        FAIR      59  32  35 E7        30.13F
TROY           MOSUNNY   59  30  32 N8        30.15F
SAGINAW HB     SUNNY     57  27  30 NE8       30.15F
$$
MIZ043>046-050>051-056>058-064>065-071>073-077>080-222100-
SOUTHWEST LOWER MICHIGAN

CITY           SKY/WX    TMP DP  RH WIND       PRES   REMARKS
BATTLE CREEK   SUNNY     61  30  31 NE13G20   30.14F
BENTON HARBOR  MOSUNNY   53  31  42 NW8       30.16F
BIG RAPIDS     SUNNY     61  22  22 NW5       30.12F
COLDWATER      SUNNY     59  30  34 NE9G18    30.13F
FREMONT        FAIR      63  24  22 N6        30.13F
HOLLAND        SUNNY     59  34  39 W12       30.15F
GRAND RAPIDS   MOSUNNY   63  29  27 N12       30.13F
IONIA          FAIR      60  30  32 NE5       30.14F
KALAMAZOO      SUNNY     62  24  23 MISG      30.14F
LUDINGTON      SUNNY     56  27  32 N9        30.17S
MARSHALL       SUNNY     60  27  29 NE6       30.12F
MOUNT PLEASANT SUNNY     61  26  27 CALM      30.13F
MUSKEGON       SUNNY     58  31  35 W12       30.15F
SOUTH HAVEN    SUNNY     54  32  43 N10       30.16F
$$
MIZ016>042-222100-
NORTHERN LOWER MICHIGAN

CITY           SKY/WX    TMP DP  RH WIND       PRES   REMARKS
ALPENA         SUNNY     60  26  27 N9        30.14F
BEAVER ISLAND  SUNNY     54  24  31 SW10      30.15F
BELLAIRE       SUNNY     58  19  21 NW8       30.16F
CADILLAC       SUNNY     61  23  23 NE9       30.13F
CHARLEVOIX     SUNNY     54  29  37 W9        30.19F
FRANKFORT      SUNNY     56  26  31 W9        30.17F
GAYLORD        SUNNY     60  22  23 W8        30.13F
GRAYLING       SUNNY     63  23  22 CALM      30.13F
HARBOR SPRINGS SUNNY     51  28  41 SW9       30.16S
HOUGHTON LAKE  SUNNY     60  25  26 W9        30.13F
MANISTEE       SUNNY     56  26  31 NW10      30.17F
OSCODA         SUNNY     51  26  37 SE5       30.15F
PELLSTON       SUNNY     59  19  21 W8        30.13F
ROGERS CITY    SUNNY     55  23  29 NE3       30.15S
TRAVERSE CITY  SUNNY     57  26  30 NE8       30.15F
$$
MIZ007>008-015-222100-
EASTERN UPPER MICHIGAN

CITY           SKY/WX    TMP DP  RH WIND       PRES   REMARKS
KINROSS        SUNNY     60  25  26 N7        30.10F
MACKINAC ISLAN SUNNY     50  28  43 SW13G20   30.13F
NEWBERRY       SUNNY     62  31  31 S15       30.09F
S. S. MARIE    SUNNY     61  27  27 NW8       30.10F
MUNISING         N/A     51  32  48 NE9       30.06F
$$
MIZ004>006-011>014-085-222100-
CENTRAL UPPER MICHIGAN

CITY           SKY/WX    TMP DP  RH WIND       PRES   REMARKS
MANISTIQUE     SUNNY     51  27  39 S13       30.12F
ESCANABA       SUNNY     54  26  34 S15       30.13F
SAWYER-GWINN   MOSUNNY   64  30  27 SW10      30.08F
$$
MIZ001>003-009>011-084-222100-
WESTERN UPPER MICHIGAN

CITY           SKY/WX    TMP DP  RH WIND       PRES   REMARKS
IRON MOUNTAIN  SUNNY     68  25  19 MISG      30.08F
HOUGHTON       SUNNY     64  29  26 W23G32    30.05F
COPPER HARBOR    N/A     60  31  33 N12G29    30.04F
IRONWOOD       SUNNY     67  29  24 SW20      30.08F
$$

ABBREVIATIONS USED IN REMARKS
   TC - TEMPERATURE IN CELSIUS
  WCI - WIND CHILL INDEX
   HX - HEAT INDEX
  VSB - VISIBILITY




USA.gov is the U.S. government's official web portal to all federal, state and local government web resources and services.